Location: Gugi
(45.4667°N, 11.1000°E)
Time: 23:17:28
(UTC+00:00)

Cosmos 1464 Rocket - Pass Details

Date: 17 November 2019
Orbit: 951 x 1002 km, 82.9° (Epoch: 07 December)

Event Time Altitude Azimuth Distance (km) Brightness Sun altitude
Rises 16:46:58 0° 354° (N) 3,657 6.9 -11.1°
Reaches altitude 10° 16:49:31 10° 357° (N) 2,701 6.2 -11.6°
Maximum altitude 16:55:38 64° 79° (E) 1,055 3.9 -12.6°
Drops below altitude 10° 17:01:41 10° 160° (SSE) 2,670 6.2 -13.6°
Sets 17:04:11 0° 164° (SSE) 3,612 7.0 -14.1°
